Flight Track Log - Related Links

Times and Time Zones

All times are in EDT time to prevent confusion due to time zone crossing. See the CTL15 flight status page for this flight to view local times or setup timezone preferences in your user account.

Time Position Orientation Groundspeed Altitude Reporting Facility
EDT Latitude Longitude Course Direction KTS MPH feet Rate Location/Type
Fri 20:29:38 39.5744 -84.2094 49° Northeast 169 194 1,900  Level Indianapolis Center
Fri 20:30:26 39.5958 -84.1769 49° Northeast 163 188 2,500 659 Climbing Indianapolis Center
Fri 20:31:09 39.6244 -84.1436 42° Northeast 172 198 2,900 537 Climbing Indianapolis Center
Fri 20:31:33 39.6397 -84.1258 42° Northeast 190 219 3,100 98 Climbing Indianapolis Center
Fri 20:32:10 39.6644 -84.0947 44° Northeast 184 212 3,000 -218 Descending Indianapolis Center
Fri 20:32:28 39.6769 -84.0767 48° Northeast 207 238 2,900  Descending Indianapolis Center
Fri 20:33:12 39.7044 -84.0428 43° Northeast 195 224 3,000 200 Climbing Indianapolis Center
Fri 20:33:28 39.7164 -84.0275 45° Northeast 193 222 3,100  Climbing Indianapolis Center
Fri 20:34:14 39.7428 -83.9933 45° Northeast 194 223 3,000 -98 Descending Indianapolis Center
Fri 20:34:29 39.7536 -83.9806 42° Northeast 179 206 3,000 98 Level Indianapolis Center
Fri 20:35:15 39.7817 -83.9450 44° Northeast 192 221 3,100  Climbing Indianapolis Center
Fri 20:35:30 39.7931 -83.9314 43° Northeast 194 223 3,000  Descending Indianapolis Center
Fri 20:36:17 39.8200 -83.8956 46° Northeast 192 221 3,100 56 Climbing Indianapolis Center
Fri 20:37:18 39.8592 -83.8469 44° Northeast 192 221 3,100 -49 Level Indianapolis Center
Fri 20:38:20 39.8969 -83.7983 45° Northeast 191 220 3,000 -49 Descending Indianapolis Center
Fri 20:39:21 39.9353 -83.7494 44° Northeast 190 219 3,000 49 Level Indianapolis Center
Fri 20:40:23 39.9736 -83.7003 44° Northeast 190 219 3,100 49 Climbing Indianapolis Center
Fri 20:41:24 40.0128 -83.6506 44° Northeast 192 221 3,100  Level Indianapolis Center
Fri 20:42:26 40.0517 -83.5994 45° Northeast 193 222 3,100  Level Indianapolis Center
Fri 20:43:27 40.0917 -83.5489 44° Northeast 196 226 3,100 -49 Level Indianapolis Center
Fri 20:44:29 40.1325 -83.4992 43° Northeast 197 227 3,000 -49 Descending Indianapolis Center
Fri 20:45:30 40.1719 -83.4483 45° Northeast 197 227 3,000 50 Level Indianapolis Center
Fri 20:46:30 40.2181 -83.3936 42° Northeast 195 224 3,100 50 Climbing Indianapolis Center
Fri 20:47:31 40.2569 -83.3464 43° Northeast 195 224 3,100  Level Indianapolis Center
Fri 20:48:32 40.3003 -83.2969 41° Northeast 196 226 3,100  Level Indianapolis Center
Fri 20:49:36 40.3414 -83.2478 42° Northeast 195 224 3,100  Level Indianapolis Center
Fri 20:50:37 40.3814 -83.1989 43° Northeast 194 223 3,100  Level Indianapolis Center
Fri 20:51:39 40.4208 -83.1478 45° Northeast 196 226 3,100 -49 Level Indianapolis Center
Fri 20:52:40 40.4608 -83.0944 45° Northeast 199 229 3,000 -49 Descending Indianapolis Center
Fri 20:53:41 40.5008 -83.0419 45° Northeast 200 230 3,000  Level Indianapolis Center
Fri 20:54:43 40.5406 -82.9900 45° Northeast 201 231 3,000  Level Indianapolis Center
Fri 20:55:44 40.5797 -82.9369 46° Northeast 200 230 3,000  Level Indianapolis Center
Fri 20:56:46 40.6183 -82.8828 47° Northeast 199 229 3,000  Level Indianapolis Center
Fri 20:57:47 40.6558 -82.8275 48° Northeast 200 230 3,000  Level Indianapolis Center
Fri 20:58:48 40.6956 -82.7769 44° Northeast 198 228 3,000  Level Indianapolis Center
Fri 20:59:50 40.7331 -82.7244 47° Northeast 196 226 3,000 49 Level Indianapolis Center
Fri 21:00:51 40.7722 -82.6719 45° Northeast 198 228 3,100  Climbing Indianapolis Center
Fri 21:01:16 40.7883 -82.6481 48° Northeast 200 230 3,000 -70 Descending Cleveland Center
Fri 21:02:17 40.8292 -82.5917 46° Northeast 197 227 3,000  Level Cleveland Center

Login

Don't have an account? Register now (free) for customized features, flight alerts, and more!